sat.trackr.live / text

‹ back to catalog

STARLINK-36437

NORAD 67465 · 2026-008W

PAYLOAD ACTIVE UNKNOWN

§ Identity

Operator
Country
US
Launch date
2026-01-14
Launch site
AFETR
Launch vehicle
Mass (kg)
RCS (m²)

Purposes: comms

External: N2YO · Heavens-Above · Gunter

§ Orbital elements

Epoch: 2026-05-24T23:41:48.785280Z

Period
94.27 min
Inclination
42.9989°
Eccentricity
0.0001328
Mean motion
15.27570953 rev/d
Perigee alt
482.2 km
Apogee alt
484.0 km
Semi-major
6,861.2 km
B*
4.0378e-4
RAAN
134.0951°
Arg perigee
279.9562°
Mean anomaly
80.1139°
Rev number
2,124

§ Raw data

STARLINK-364371 67465U 26008W   26144.98737020  .00010862  00000+0  40378-3 0  99982 67465  42.9989 134.0951 0001328 279.9562  80.1139 15.27570953 21243

JSON: /api/v1/satellites/67465 · /tle

For live sub-satellite position, see the globe view (requires WebGL).

§ Visibility from observer

Set your observer location to see the next 7 days of passes ≥ 10°. The values pass through the URL so the page stays shareable.

No JS? Fill the form by hand. The geolocation button needs JavaScript.